Temp_Advection
nan nan nan nan nan nan nan nan nan nan nan nan nan nan nan nan nan nan nan nan nan nan nan nan nan nan nan nan nan nan nan nan nan nan nan nan nan nan nan nan nan nan nan nan
nan -0 -0 -0 -0 -0 -0 -0 0 -0 -0 0 0 0 -0 -0 -1 -1 -1 -1 -0 -0 -0 -0 0 -0 -0 -0 -0 -0 -1 -0 -0 -0 0 0 0 -0 -0 0 0 0 0 nan
nan -0 -0 -0 -0 0 0 -0 -0 0 -0 0 -0 -0 0 -0 -0 0 -0 -0 -0 -0 -0 -0 -0 -0 0 -0 -0 -1 -0 0 -0 0 1 0 -0 -0 -0 0 0 0 0 nan
nan -0 0 -0 0 -0 -0 0 0 -0 -0 0 -0 0 -0 0 0 -0 -0 0 -0 -0 -0 -0 0 -0 -0 0 1 0 1 1 1 1 0 -0 -0 -0 0 1 1 0 0 nan
nan -0 -0 -0 -0 -0 -0 0 0 0 0 -0 -0 -0 -0 -0 -0 -0 -0 -0 -1 -0 1 0 -0 0 1 1 0 1 1 1 1 1 0 0 1 0 0 1 1 0 0 nan
nan -0 -0 -0 0 0 0 -0 -1 -0 -0 -0 -0 -0 -0 -0 -0 -0 -0 -0 -0 1 0 1 1 1 1 -0 0 0 1 1 1 1 0 1 1 -0 0 1 1 0 0 nan
nan 0 0 -0 -0 -0 -0 -0 -0 0 -0 -0 -0 -0 -0 -0 0 -0 -0 -2 -1 0 0 0 -0 -1 -1 -0 0 0 1 1 1 0 1 1 1 -0 -0 1 1 1 1 nan
nan -0 0 0 0 -0 -0 -0 -0 0 0 -0 -0 -0 -0 -0 -0 -1 -1 -0 1 1 0 -1 -0 0 1 1 0 1 2 1 0 1 1 1 0 -1 -0 1 1 1 1 nan
nan -0 -0 0 0 0 -0 -0 -0 -1 0 0 -0 -0 -0 0 -0 -0 1 1 1 0 -0 1 1 0 0 -0 0 2 1 0 1 1 0 -0 -0 -0 1 1 1 1 1 nan
nan -0 0 -0 0 -0 0 -0 -0 0 0 -0 -0 -0 -0 -0 0 -1 0 0 0 0 0 -0 -1 -0 -1 -0 1 1 0 0 0 -0 -0 -0 -0 0 1 1 1 1 1 nan
nan 0 -0 -0 0 0 0 0 -0 -0 -0 0 0 -0 -0 -0 -0 0 -0 -0 -0 -0 -1 -1 -0 -0 -0 1 1 0 0 -0 -0 -0 -0 0 1 1 1 1 1 0 0 nan
nan 0 0 -0 0 0 -0 0 -0 0 0 -0 0 -1 -0 0 -0 -1 -1 -0 -0 -0 -0 0 1 0 0 1 1 0 -0 0 1 0 1 2 1 1 1 1 1 2 2 nan
nan 0 0 -0 -0 -0 0 0 -0 -0 -0 -0 -0 -1 -0 -0 -0 -0 -1 -0 0 0 1 1 1 0 0 1 1 1 1 1 -0 -0 2 2 1 1 1 2 2 1 2 nan
nan -0 -0 -0 -0 0 0 0 -0 -1 -0 -0 -1 -1 -0 0 0 -1 -1 0 1 1 1 1 1 0 1 1 2 1 1 -0 -0 2 3 1 1 1 2 2 1 2 2 nan
nan -0 -0 -0 0 0 0 0 0 -0 -0 -0 -0 -0 -0 -0 0 -0 0 0 0 1 1 0 0 0 1 2 1 0 -0 0 2 3 1 1 2 2 2 1 2 2 2 nan
nan 0 0 0 -0 -0 0 0 0 -0 -0 0 -0 0 0 -0 0 -0 0 1 0 0 0 0 0 0 0 1 1 0 -0 2 3 1 1 3 3 1 2 2 2 1 1 nan
nan -0 0 0 -0 -0 -0 -0 -0 0 0 0 0 0 0 -0 -0 0 1 0 0 0 0 0 -0 -0 -0 0 0 0 1 2 2 2 3 3 2 1 2 1 1 1 0 nan
nan -0 -0 0 0 -0 -1 -0 0 0 0 0 0 0 0 0 0 1 0 0 0 0 0 -0 -0 -0 -0 -0 0 1 2 2 2 2 2 2 2 2 2 2 1 -0 -0 nan
nan -0 0 0 -0 -1 -0 0 -0 0 0 0 -0 0 1 1 0 -0 0 0 -0 -0 -0 -0 -0 -0 -0 -0 -0 1 1 2 2 2 2 2 2 2 1 0 -0 0 0 nan
nan -0 -0 0 0 0 -0 -0 -0 -1 -0 -0 -0 -0 -0 -0 -0 -0 0 0 0 0 0 -0 -0 -0 -0 -0 0 0 1 1 1 1 1 1 1 0 -0 0 0 0 0 nan
nan 0 0 -0 0 -1 -1 -0 0 -0 -0 -0 -1 -1 -1 -0 -0 -0 0 0 0 0 0 0 0 0 -0 -0 0 0 1 1 1 0 0 0 0 0 -0 0 0 0 0 nan
nan -1 -0 0 0 -1 -0 0 -0 -0 -0 0 -0 0 -1 -1 0 1 1 1 1 0 0 0 0 -0 -0 0 0 0 0 0 0 0 0 -0 -0 0 0 -0 -0 0 0 nan
nan -0 -0 -1 -1 -0 0 -0 -0 -1 -1 0 0 1 0 -0 1 1 1 1 0 1 0 0 0 -0 -0 0 0 0 -0 0 0 -0 -0 0 0 0 -0 0 0 -0 0 nan
nan -0 -0 0 0 0 0 1 2 1 1 1 1 1 1 -0 0 0 1 1 0 0 0 0 0 -0 -0 -0 -0 -0 -0 -0 -0 -0 -0 -0 -0 -0 -0 -0 -0 -0 -0 nan
nan -0 -0 -0 0 0 0 1 2 1 2 1 1 1 1 1 -0 0 0 0 0 0 0 0 0 -0 -0 -0 -0 -0 -0 -0 -0 -0 -0 -0 -0 -0 -0 -0 0 -0 -0 nan
nan nan nan nan nan nan nan nan nan nan nan nan nan nan nan nan nan nan nan nan nan nan nan nan nan nan nan nan nan nan nan nan nan nan nan nan nan nan nan nan nan nan nan nan
Wind_Speed
3 4 3 7 5 3 1 2 3 5 4 3 6 4 13 21 19 16 26 33 31 31 29 29 29 28 28 30 30 30 29 28 29 28 27 28 28 25 22 17 15 11 14 18
4 3 7 4 3 5 3 3 4 5 3 7 6 7 4 13 21 30 32 32 34 34 31 31 31 31 31 29 29 31 29 30 32 30 30 30 28 25 19 16 13 13 16 17
5 4 3 2 0 1 2 1 3 5 6 1 5 5 3 4 10 21 24 33 33 42 40 36 36 37 34 33 29 28 30 34 34 32 31 30 27 24 21 17 16 16 17 15
5 3 4 4 1 3 2 3 3 4 1 3 1 3 5 6 13 12 23 31 37 43 43 41 42 41 42 39 35 33 33 36 36 33 33 33 32 31 28 21 18 18 16 14
5 6 5 4 5 5 6 1 4 3 4 2 3 3 5 1 7 17 19 30 41 46 46 47 46 42 41 41 40 37 38 39 36 35 35 34 33 30 22 20 19 18 17 18
5 2 2 4 1 5 3 1 5 4 3 1 3 3 5 5 12 6 20 32 43 46 43 46 46 44 44 43 43 41 39 38 35 34 35 36 33 31 27 22 22 21 20 20
2 2 2 1 1 4 4 5 3 4 4 4 3 2 8 8 7 8 11 27 38 46 45 44 45 46 45 43 43 42 41 39 35 32 33 33 34 31 29 24 24 25 24 23
5 5 6 3 4 4 1 6 4 3 3 4 4 4 6 4 8 17 19 18 25 37 43 44 46 46 43 38 38 42 42 38 36 33 34 31 34 30 28 26 26 28 27 26
4 4 2 3 2 4 2 3 3 6 3 3 3 6 10 7 6 8 8 16 17 27 36 43 41 41 40 36 35 34 33 36 31 31 31 29 31 31 31 28 27 28 27 24
7 1 1 3 3 5 3 5 1 2 3 3 4 4 5 6 5 6 7 14 17 22 26 32 36 34 33 31 24 22 26 25 28 29 30 31 32 31 31 30 29 29 26 23
5 5 4 3 5 7 2 2 2 4 4 4 1 5 6 7 6 7 2 10 15 18 19 19 24 29 30 29 30 25 25 25 27 29 31 31 31 32 30 29 30 32 31 30
8 6 5 10 3 4 3 5 5 4 4 1 3 6 4 6 7 7 11 9 14 19 17 18 22 26 27 30 32 31 27 25 29 32 32 31 30 29 28 28 30 30 29 24
8 2 2 7 4 2 4 5 4 4 3 6 5 6 3 4 5 9 16 14 16 21 24 26 27 27 26 30 34 34 32 31 32 30 31 33 32 29 28 29 27 23 24 22
10 4 7 8 8 4 3 4 4 6 3 4 6 6 6 8 6 11 17 19 18 19 25 28 29 30 31 33 35 33 31 37 28 27 31 32 31 31 30 26 25 27 23 20
6 5 4 3 3 4 5 5 7 6 6 6 8 7 7 4 5 6 11 3 5 10 17 23 28 30 33 34 35 35 33 31 30 31 34 33 33 31 28 27 27 23 23 17
1 3 3 3 3 4 4 7 6 6 3 6 4 6 4 3 7 13 15 18 17 15 11 5 6 17 26 34 37 35 33 29 34 33 34 34 31 29 27 26 22 18 17 14
5 6 4 4 2 3 6 7 8 6 5 6 6 8 3 3 5 13 19 19 17 14 10 7 6 4 0 6 15 24 30 34 31 33 33 31 28 26 26 22 20 19 11 13
6 5 3 3 3 2 7 3 6 5 2 5 4 6 6 9 15 15 14 14 12 9 8 6 5 6 6 5 7 14 21 24 25 27 24 24 27 27 25 22 15 7 19 15
3 6 3 5 4 4 5 4 6 6 2 3 8 7 14 17 18 11 9 8 6 4 4 5 6 7 8 6 5 10 14 18 20 22 24 25 24 22 17 8 13 16 13 11
5 6 5 3 5 7 7 4 5 5 2 5 7 8 11 6 3 3 4 5 3 2 1 1 2 2 2 2 3 5 10 15 18 20 21 22 20 13 13 15 20 11 10 13
3 3 5 2 3 7 7 5 9 6 7 17 19 19 16 5 5 10 11 9 7 5 4 4 4 3 2 1 1 3 9 12 13 12 8 11 15 13 19 13 10 11 15 18
7 7 4 3 3 6 5 6 8 6 11 24 17 15 14 16 15 16 14 11 8 7 7 6 7 9 10 10 6 11 10 9 7 5 7 12 14 11 9 11 14 16 17 18
2 7 6 8 6 3 4 6 7 24 29 21 22 21 20 21 20 18 15 13 12 11 11 11 11 13 13 10 8 6 5 1 5 9 7 6 6 9 13 15 16 17 19 22
3 5 4 4 2 2 7 13 26 22 27 23 21 23 21 22 20 18 17 16 15 14 13 12 10 10 9 6 4 4 4 3 3 4 7 9 11 13 14 16 18 22 24 26
6 9 6 2 1 5 5 14 23 23 23 24 22 20 18 18 20 19 19 17 16 14 12 10 10 10 11 9 8 5 4 4 6 8 10 11 13 16 18 19 22 25 26 27
7 7 6 6 19 9 14 21 22 25 23 21 21 20 17 16 20 20 20 17 16 15 14 12 12 11 9 5 3 3 5 7 10 12 14 16 18 20 23 26 31 30 30 30
Wind_Direction
359 72 252 235 224 141 165 156 228 231 225 209 238 178 187 188 187 190 192 191 197 205 202 200 197 195 196 201 203 203 203 203 206 212 213 215 215 215 213 225 247 241 222 221
13 219 231 202 260 143 313 51 346 298 16 190 218 228 193 179 200 193 197 203 207 207 206 205 201 200 200 201 205 208 210 211 212 221 219 217 216 218 224 238 237 221 222 223
173 241 298 247 187 273 213 77 262 243 340 222 97 326 162 192 208 224 208 211 216 210 207 207 204 205 203 204 207 211 216 218 218 220 219 220 221 224 228 231 230 221 221 221
226 258 187 284 205 129 308 54 255 257 347 223 98 254 278 203 205 200 216 214 213 214 212 209 208 208 208 209 210 213 213 219 220 218 222 229 231 229 236 250 247 223 221 226
261 164 178 201 227 163 233 46 282 239 198 88 335 93 263 301 223 222 209 207 209 214 209 209 212 214 215 214 212 216 218 219 218 220 225 231 233 234 243 251 235 224 223 225
234 172 214 236 256 177 158 112 37 36 70 45 267 138 282 198 223 205 222 207 211 214 210 212 213 216 218 219 216 218 221 224 220 222 226 232 232 234 242 246 231 227 230 234
317 211 223 181 52 44 81 58 337 3 13 221 334 48 238 247 247 220 218 209 206 212 211 212 210 213 218 219 220 221 225 225 221 225 230 235 239 240 246 244 238 231 233 237
177 308 181 182 141 179 155 158 160 208 181 265 343 243 255 233 307 254 239 209 213 216 213 213 214 215 219 219 221 226 229 224 223 229 230 238 236 242 246 241 240 235 235 233
147 266 262 225 162 156 175 206 170 105 27 60 252 294 307 332 59 75 151 182 197 207 212 218 218 216 215 218 226 231 225 222 234 229 230 231 231 236 245 240 234 232 229 230
204 209 172 301 51 281 171 163 66 5 144 234 281 278 246 315 322 149 181 181 194 199 206 214 220 223 220 232 238 227 225 234 226 225 228 230 232 238 243 238 235 228 226 229
139 128 290 30 197 199 139 217 83 120 141 173 212 263 217 243 272 298 257 217 204 197 200 209 219 222 227 233 228 235 228 226 225 230 233 235 236 233 232 230 230 230 238 255
199 146 192 217 179 161 179 187 153 134 238 166 157 268 250 249 271 270 268 226 218 208 208 217 219 221 225 226 228 230 231 236 235 234 235 236 231 223 226 234 238 242 244 241
177 206 101 338 359 30 196 196 148 114 77 192 146 256 298 276 301 258 252 249 224 219 221 222 223 223 227 227 228 229 229 230 232 237 240 231 230 234 233 226 223 229 218 219
131 136 168 197 207 176 178 217 157 140 128 195 219 249 275 245 258 279 255 246 249 235 232 232 230 231 232 235 234 234 242 231 247 251 237 229 230 227 223 222 228 233 230 262
130 156 162 238 187 185 196 220 173 195 206 164 252 205 254 301 264 303 228 197 236 241 240 241 241 242 242 241 242 246 246 257 250 241 227 231 233 229 223 226 226 229 237 218
254 155 129 136 24 1 235 225 201 217 205 259 230 255 219 281 105 86 101 111 101 103 105 123 242 258 261 258 254 256 261 261 244 231 227 231 225 219 222 225 228 236 220 231
128 132 118 221 45 350 315 224 217 212 207 183 182 220 157 93 90 97 106 105 104 102 99 92 77 74 58 277 272 264 256 253 248 232 229 222 215 216 220 221 228 228 228 271
133 102 75 179 59 306 248 283 238 196 264 242 122 137 138 135 108 99 105 112 108 99 88 70 47 21 13 339 294 269 255 250 239 226 221 216 213 215 213 214 217 260 294 295
116 120 111 142 184 294 292 183 160 164 253 330 131 130 134 122 102 70 81 81 80 60 21 352 352 357 0 352 304 257 239 230 219 213 204 197 198 197 194 188 298 300 284 268
56 66 119 150 154 208 234 259 187 116 279 200 153 159 157 128 99 238 162 160 168 192 242 310 331 319 328 341 289 249 216 210 199 189 186 183 173 184 237 276 297 287 277 285
62 27 154 133 193 284 241 202 147 149 232 171 174 167 168 155 181 163 181 185 191 194 200 202 185 163 71 65 190 210 178 175 174 173 187 243 261 263 286 298 290 282 283 286
158 148 175 88 69 280 194 140 169 203 144 164 170 163 146 147 154 163 171 169 165 153 133 125 126 110 105 109 130 130 144 154 183 235 281 289 296 300 286 280 285 289 289 288
205 182 177 176 208 230 211 239 188 156 156 165 166 164 161 156 159 163 156 147 138 134 130 123 119 118 113 109 98 114 121 164 288 298 307 302 294 289 291 293 294 292 293 295
233 173 124 107 249 224 185 167 163 168 165 164 170 166 169 163 162 155 151 147 144 138 131 124 122 116 111 101 97 93 86 70 27 343 320 310 305 301 299 298 299 298 298 298
198 139 131 78 51 101 173 171 161 159 159 160 162 169 171 166 157 160 153 147 141 135 127 125 120 111 99 92 87 78 48 3 340 329 322 317 311 309 303 300 302 301 298 298
193 162 160 212 187 168 178 167 163 158 155 158 163 155 155 167 158 155 143 139 136 130 126 122 116 115 110 101 71 21 340 328 319 313 307 303 300 297 296 296 294 290 289 289
Height
1498 1502 1507 1501 1499 1499 1500 1503 1507 1503 1493 1498 1495 1497 1498 1499 1504 1508 1509 1510 1510 1510 1513 1517 1519 1523 1527 1530 1532 1535 1538 1540 1543 1546 1547 1550 1552 1555 1557 1558 1559 1558 1560 1562
1504 1503 1496 1493 1495 1495 1499 1499 1503 1493 1489 1496 1495 1496 1498 1497 1496 1499 1502 1505 1507 1510 1511 1513 1517 1520 1523 1526 1529 1531 1534 1536 1539 1543 1546 1549 1551 1553 1554 1555 1556 1556 1560 1560
1505 1497 1493 1492 1493 1496 1498 1500 1502 1502 1496 1493 1496 1501 1496 1497 1497 1499 1500 1502 1504 1502 1505 1509 1513 1515 1520 1521 1523 1526 1529 1533 1536 1541 1544 1547 1548 1549 1550 1551 1553 1555 1557 1557
1500 1492 1493 1494 1495 1494 1500 1494 1497 1499 1503 1511 1496 1519 1500 1494 1494 1495 1494 1496 1498 1499 1503 1506 1508 1511 1512 1515 1521 1524 1526 1531 1534 1538 1541 1541 1543 1544 1546 1549 1551 1552 1554 1554
1497 1494 1494 1496 1492 1490 1497 1491 1495 1493 1499 1503 1504 1514 1501 1492 1493 1487 1488 1490 1492 1494 1497 1501 1503 1505 1510 1515 1518 1521 1526 1529 1533 1535 1536 1538 1539 1542 1545 1546 1547 1549 1550 1550
1491 1489 1490 1489 1487 1487 1488 1491 1497 1500 1504 1517 1503 1507 1505 1494 1483 1482 1479 1482 1486 1490 1494 1496 1501 1506 1509 1513 1517 1519 1523 1526 1529 1531 1532 1533 1535 1538 1541 1542 1543 1544 1546 1548
1492 1489 1486 1487 1489 1489 1491 1501 1523 1525 1531 1523 1502 1506 1494 1474 1471 1472 1472 1474 1477 1483 1489 1493 1496 1498 1503 1508 1512 1517 1519 1521 1525 1526 1528 1529 1530 1534 1535 1537 1539 1541 1543 1545
1503 1507 1487 1483 1486 1492 1493 1500 1524 1523 1533 1522 1505 1511 1490 1470 1471 1466 1466 1469 1474 1478 1483 1488 1492 1495 1499 1507 1509 1511 1515 1519 1521 1522 1524 1526 1527 1530 1531 1534 1535 1538 1539 1541
1500 1498 1484 1483 1483 1485 1492 1500 1495 1519 1528 1534 1514 1497 1478 1467 1468 1468 1469 1470 1472 1475 1479 1483 1487 1492 1498 1504 1505 1508 1511 1514 1515 1517 1520 1521 1524 1526 1527 1529 1532 1535 1536 1536
1485 1495 1485 1484 1483 1483 1485 1486 1503 1512 1517 1521 1513 1504 1498 1475 1468 1472 1472 1470 1472 1475 1478 1481 1485 1490 1494 1497 1501 1504 1507 1508 1510 1511 1514 1516 1519 1521 1523 1525 1528 1530 1532 1532
1478 1486 1492 1485 1486 1487 1490 1492 1494 1501 1515 1521 1529 1509 1481 1475 1470 1469 1469 1470 1471 1473 1476 1480 1483 1487 1491 1495 1498 1500 1501 1502 1503 1505 1508 1510 1512 1514 1517 1520 1523 1524 1525 1525
1473 1484 1498 1488 1479 1478 1480 1484 1492 1516 1507 1516 1526 1509 1471 1470 1469 1469 1467 1469 1471 1473 1475 1478 1481 1484 1487 1490 1492 1493 1495 1496 1497 1501 1503 1505 1508 1511 1514 1516 1516 1517 1518 1521
1470 1485 1500 1492 1485 1479 1481 1482 1485 1493 1504 1509 1524 1505 1470 1469 1467 1467 1467 1467 1470 1473 1475 1478 1480 1482 1483 1484 1486 1488 1490 1492 1495 1498 1499 1501 1504 1507 1509 1512 1514 1515 1516 1516
1458 1475 1481 1493 1484 1477 1479 1477 1479 1487 1512 1500 1503 1486 1473 1468 1467 1465 1464 1464 1467 1471 1473 1475 1477 1480 1481 1482 1483 1486 1489 1489 1493 1494 1496 1500 1503 1504 1507 1509 1510 1510 1515 1518
1456 1471 1473 1472 1471 1471 1472 1474 1480 1484 1484 1493 1482 1486 1471 1469 1465 1463 1462 1464 1465 1468 1471 1473 1476 1478 1479 1480 1481 1483 1485 1487 1489 1491 1494 1495 1498 1502 1504 1505 1505 1507 1506 1507
1456 1473 1467 1476 1475 1475 1474 1472 1475 1477 1476 1477 1475 1477 1468 1468 1466 1464 1464 1466 1467 1469 1471 1473 1475 1476 1477 1478 1479 1480 1481 1483 1485 1487 1490 1492 1497 1500 1500 1501 1503 1501 1502 1504
1459 1469 1483 1483 1484 1483 1493 1477 1471 1469 1467 1467 1476 1468 1466 1469 1469 1468 1467 1469 1471 1472 1474 1475 1476 1476 1476 1476 1477 1478 1479 1480 1482 1484 1486 1489 1493 1495 1496 1496 1496 1498 1501 1504
1459 1469 1484 1495 1492 1506 1467 1461 1462 1465 1465 1462 1462 1463 1465 1467 1470 1470 1471 1472 1473 1475 1476 1477 1478 1478 1477 1476 1476 1476 1477 1478 1480 1482 1486 1488 1489 1489 1491 1491 1494 1498 1498 1497
1446 1466 1488 1492 1495 1479 1462 1463 1463 1462 1464 1460 1461 1465 1466 1468 1468 1471 1472 1473 1475 1475 1476 1476 1476 1476 1475 1475 1475 1474 1475 1476 1478 1480 1483 1485 1487 1488 1489 1492 1494 1492 1493 1493
1455 1456 1470 1496 1492 1494 1464 1455 1452 1455 1477 1461 1461 1463 1465 1467 1478 1476 1474 1475 1475 1476 1475 1475 1475 1474 1474 1474 1474 1474 1474 1476 1479 1482 1484 1485 1486 1488 1489 1492 1491 1490 1490 1490
1471 1475 1478 1499 1492 1475 1453 1451 1452 1470 1470 1455 1460 1461 1465 1469 1470 1472 1473 1474 1474 1474 1475 1475 1475 1475 1475 1476 1476 1477 1478 1480 1483 1486 1488 1489 1490 1490 1490 1489 1489 1487 1486 1485
1455 1473 1484 1490 1493 1475 1445 1450 1457 1450 1448 1452 1457 1460 1463 1466 1469 1471 1472 1473 1474 1475 1476 1476 1476 1476 1477 1478 1480 1480 1483 1485 1486 1487 1488 1489 1488 1487 1486 1486 1485 1484 1482 1480
1449 1445 1455 1457 1457 1443 1443 1444 1442 1443 1445 1453 1456 1460 1462 1465 1468 1471 1472 1474 1476 1477 1477 1479 1479 1480 1482 1483 1485 1485 1486 1487 1487 1487 1487 1487 1486 1486 1484 1483 1481 1480 1478 1475
1435 1434 1440 1445 1443 1442 1441 1441 1440 1443 1446 1451 1455 1458 1461 1463 1467 1470 1472 1474 1476 1478 1479 1481 1482 1483 1483 1485 1486 1486 1486 1486 1486 1486 1486 1485 1484 1483 1481 1480 1478 1475 1473 1470
1424 1428 1436 1444 1442 1443 1441 1440 1440 1443 1446 1449 1454 1457 1460 1462 1466 1468 1471 1474 1477 1479 1481 1482 1483 1484 1485 1486 1486 1486 1486 1485 1485 1484 1484 1483 1481 1479 1477 1475 1472 1470 1467 1465
1413 1418 1429 1432 1423 1427 1433 1438 1441 1442 1446 1450 1452 1456 1460 1463 1464 1469 1473 1476 1478 1480 1482 1483 1484 1485 1486 1486 1486 1486 1485 1484 1483 1482 1480 1478 1476 1473 1470 1467 1462 1462 1459 1456